TimeCDT,TemperatureF,Dew PointF,Humidity,Sea Level PressureIn,VisibilityMPH,Wind Direction,Wind SpeedMPH,Gust SpeedMPH,PrecipitationIn,Events,Conditions,WindDirDegrees,DateUTC
12:54 AM,63.0,53.1,70,30.01,10.0,NW,12.7,-,N/A,,Clear,320,2013-06-13 05:54:00
1:54 AM,62.1,54.0,75,30.02,10.0,NW,15.0,-,N/A,,Clear,310,2013-06-13 06:54:00
2:54 AM,62.1,54.0,75,30.02,10.0,NW,13.8,-,N/A,,Clear,310,2013-06-13 07:54:00
3:54 AM,61.0,54.0,78,30.02,10.0,NW,10.4,-,N/A,,Clear,320,2013-06-13 08:54:00
4:54 AM,57.0,52.0,83,30.02,10.0,NNW,6.9,-,N/A,,Clear,340,2013-06-13 09:54:00
5:54 AM,57.0,53.1,87,30.06,10.0,NW,4.6,-,N/A,,Clear,320,2013-06-13 10:54:00
6:54 AM,61.0,54.0,78,30.08,10.0,NNW,9.2,-,N/A,,Clear,330,2013-06-13 11:54:00
7:54 AM,64.9,55.0,70,30.08,10.0,North,13.8,-,N/A,,Clear,350,2013-06-13 12:54:00
8:54 AM,68.0,55.0,63,30.09,10.0,North,9.2,-,N/A,,Clear,10,2013-06-13 13:54:00
9:54 AM,71.1,55.0,57,30.09,10.0,North,8.1,-,N/A,,Clear,10,2013-06-13 14:54:00
10:54 AM,73.9,54.0,50,30.07,10.0,Variable,4.6,-,N/A,,Clear,0,2013-06-13 15:54:00
11:54 AM,78.1,54.0,43,30.07,10.0,ENE,8.1,-,N/A,,Clear,60,2013-06-13 16:54:00
12:54 PM,79.0,53.1,40,30.05,10.0,NNE,8.1,-,N/A,,Clear,20,2013-06-13 17:54:00
1:54 PM,81.0,53.1,38,30.04,10.0,East,5.8,-,N/A,,Clear,90,2013-06-13 18:54:00
2:54 PM,79.0,50.0,36,30.06,10.0,SW,4.6,-,N/A,,Clear,230,2013-06-13 19:54:00
3:54 PM,78.1,48.9,36,30.07,10.0,SW,3.5,-,N/A,,Clear,220,2013-06-13 20:54:00
4:54 PM,75.0,57.9,55,30.04,10.0,NW,3.5,-,0.00,,Scattered Clouds,320,2013-06-13 21:54:00
5:54 PM,75.0,59.0,57,30.02,10.0,Calm,Calm,-,0.00,,Partly Cloudy,0,2013-06-13 22:54:00
6:54 PM,77.0,60.1,56,29.97,10.0,NNE,10.4,-,N/A,,Partly Cloudy,30,2013-06-13 23:54:00
7:54 PM,75.0,57.9,55,29.95,10.0,NE,4.6,-,N/A,,Clear,40,2013-06-14 00:54:00
8:54 PM,71.1,55.9,59,29.96,10.0,Calm,Calm,-,N/A,,Clear,0,2013-06-14 01:54:00
9:54 PM,66.0,57.9,75,29.97,10.0,NNW,5.8,-,N/A,,Clear,340,2013-06-14 02:54:00
10:54 PM,64.0,57.9,80,30.01,10.0,WNW,3.5,-,N/A,,Clear,300,2013-06-14 03:54:00
11:54 PM,63.0,57.9,84,30.01,10.0,ENE,4.6,-,N/A,,Clear,60,2013-06-14 04:54:00